Caribou, ME

11:19 AM EST on February 06, 2016 (GMT -0500)
Caribou Municipal

Weather History for KCAR - December, 2013

Change the Weather History Date:

Wednesday, December 11, 2013

  Actual Average Record
Temperature  
Mean Temperature 12 °F 20 °F  
Max Temperature 20 °F 28 °F 56 °F (1969)
Min Temperature 3 °F 13 °F -16 °F (1958)
Degree Days  
Heating Degree Days 53 45  
Month to date heating degree days 445 468  
Since 1 July heating degree days 2401 2613  
Cooling Degree Days 0 0  
Month to date cooling degree days 0 0  
Year to date cooling degree days 192 180  
Moisture  
Dew Point 4 °F    
Average Humidity 71    
Maximum Humidity 86    
Minimum Humidity 56    
Precipitation  
Precipitation 0.01 in 0.11 in 1.66 in (1993)
Month to date precipitation 0.59 1.27  
Year to date precipitation 47.17 36.49  
Snow  
Snow 0.20 in 0.70 in 6.20 in (1994)
Month to date snowfall 4.2 7.3  
Since 1 July snowfall 14.3 19.5  
Snow Depth 1.00 in    
Sea Level Pressure  
Sea Level Pressure 29.91 in    
Wind  
Wind Speed 9 mph (West)    
Max Wind Speed 18 mph    
Max Gust Speed 23 mph    
Visibility 8 miles    
Events Fog , Snow    
T = Trace of Precipitation, MM = Missing Value Source: NWS Daily Summary

Daily Weather History Graph

Daily Weather History Graph

Search for Another Location

Airport or City:

Trip Planner

Search our weather history database for the weather conditions in past years. The results will help you decide how hot, cold, wet, or windy it might be!

Date:

Astronomy

Dec. 11, 2013 Rise Set
Actual Time 7:07 AM EST 3:43 PM EST
Civil Twilight 6:32 AM EST 4:18 PM EST
Nautical Twilight 5:53 AM EST 4:57 PM EST
Astronomical Twilight 5:16 AM EST 5:34 PM EST
Moon 12:31 PM EST (12/11) 1:07 AM EST (12/11)
Length of Visible Light 9h 46m
Length of Day
8h 35m
Waxing Gibbous, 71% of the Moon is Illuminated
Dec 11
Waxing Gibbous
Dec 17
Full
Dec 25
Last Quarter
Jan 1
New
Jan 7
First Quarter

Hourly Weather History & Observations

Time (EST) Temp. Windchill Dew Point Humidity Pressure Visibility Wind Dir Wind Speed Gust Speed Precip Events Conditions
12:54 AM 12.0 °F 2.7 °F 3.9 °F 70% 29.76 in 10.0 mi WNW 5.8 mph - N/A   Scattered Clouds
1:54 AM 12.0 °F 0.5 °F 3.9 °F 70% 29.80 in 10.0 mi NW 8.1 mph - N/A   Scattered Clouds
2:54 AM 9.0 °F 2.4 °F 1.9 °F 73% 29.82 in 10.0 mi West 3.5 mph - N/A   Clear
3:54 AM 8.1 °F 1.4 °F 1.9 °F 76% 29.85 in 10.0 mi West 3.5 mph - N/A   Clear
4:54 AM 6.1 °F -2.8 °F -0.0 °F 76% 29.87 in 10.0 mi West 4.6 mph - N/A   Clear
5:54 AM 3.9 °F -8.2 °F -0.9 °F 80% 29.91 in 10.0 mi WSW 6.9 mph - N/A   Clear
6:54 AM 3.0 °F -4.4 °F -0.9 °F 84% 29.92 in 10.0 mi SSW 3.5 mph - N/A   Clear
7:54 AM 6.1 °F -4.3 °F 1.0 °F 80% 29.94 in 10.0 mi SW 5.8 mph - N/A   Clear
8:54 AM 10.0 °F -0.9 °F 3.0 °F 73% 29.94 in 10.0 mi WSW 6.9 mph - N/A   Clear
9:46 AM 10.9 °F -0.8 °F 3.9 °F 73% 29.91 in 10.0 mi SW 8.1 mph - N/A   Overcast
9:54 AM 10.9 °F 1.4 °F 3.9 °F 73% 29.96 in 10.0 mi SW 5.8 mph - N/A   Overcast
10:16 AM 12.9 °F 1.6 °F 5.0 °F 71% 29.90 in 10.0 mi SW 8.1 mph - N/A   Overcast
10:54 AM 15.1 °F 5.2 °F 6.1 °F 68% 29.94 in 9.0 mi SSW 6.9 mph - N/A   Overcast
11:28 AM 16.0 °F 3.6 °F 7.0 °F 68% 29.87 in 10.0 mi SSW 10.4 mph 18.4 mph N/A   Overcast
11:38 AM 17.1 °F 2.5 °F 7.0 °F 65% 29.87 in 10.0 mi SW 15.0 mph 21.9 mph N/A   Overcast
11:49 AM 17.6 °F 3.7 °F 8.6 °F 68% 29.87 in 10.0 mi SW 13.8 mph 20.7 mph N/A   Overcast
11:54 AM 17.1 °F 2.5 °F 8.1 °F 68% 29.91 in 10.0 mi SW 15.0 mph - N/A   Overcast
12:09 PM 18.0 °F 5.4 °F 8.1 °F 65% 29.86 in 10.0 mi WSW 11.5 mph - N/A   Overcast
12:51 PM 17.6 °F 5.7 °F 8.6 °F 68% 29.85 in 3.0 mi WSW 10.4 mph - 0.00 in Snow Light Snow
12:54 PM 18.0 °F 7.7 °F 9.0 °F 68% 29.90 in 2.5 mi WSW 8.1 mph - 0.00 in Snow Light Snow
1:06 PM 18.0 °F 5.4 °F 10.0 °F 71% 29.85 in 4.0 mi WSW 11.5 mph - 0.00 in Snow Light Snow
1:23 PM 18.0 °F 6.1 °F 9.0 °F 68% 29.84 in 10.0 mi WSW 10.4 mph - 0.00 in   Overcast
1:54 PM 19.0 °F 4.5 °F 5.0 °F 54% 29.88 in 10.0 mi WSW 16.1 mph - 0.00 in   Mostly Cloudy
2:54 PM 18.0 °F 6.9 °F 6.1 °F 60% 29.89 in 10.0 mi WSW 9.2 mph - N/A   Mostly Cloudy
3:54 PM 17.1 °F 6.6 °F 5.0 °F 59% 29.91 in 10.0 mi WSW 8.1 mph - N/A   Overcast
4:54 PM 16.0 °F 3.6 °F 3.9 °F 59% 29.92 in 10.0 mi WSW 10.4 mph - N/A   Mostly Cloudy
5:54 PM 14.0 °F 1.2 °F 6.1 °F 71% 29.94 in 10.0 mi WSW 10.4 mph - N/A   Clear
6:54 PM 12.9 °F 1.6 °F 6.1 °F 74% 29.94 in 10.0 mi WSW 8.1 mph - N/A   Clear
7:54 PM 14.0 °F 1.2 °F 5.0 °F 67% 29.95 in 10.0 mi WSW 10.4 mph - N/A   Clear
8:54 PM 12.9 °F -0.2 °F 3.0 °F 65% 29.95 in 10.0 mi West 10.4 mph - N/A   Clear
9:37 PM 10.9 °F -4.7 °F 5.0 °F 77% 29.92 in 1.8 mi NNW 13.8 mph - 0.00 in Snow Light Snow
9:41 PM 10.9 °F -2.6 °F 5.0 °F 77% 29.92 in 0.8 mi North 10.4 mph - 0.00 in Snow Light Snow
9:51 PM 10.4 °F -4.8 °F 6.8 °F 85% 29.92 in 0.5 mi North 12.7 mph - 0.01 in Fog , Snow Snow
9:54 PM 10.0 °F -5.9 °F 5.0 °F 80% 29.98 in 0.5 mi North 13.8 mph - 0.01 in Snow Snow
10:00 PM 9.0 °F -7.3 °F 3.9 °F 80% 29.93 in 1.0 mi NNW 13.8 mph - 0.00 in Snow Light Snow
10:10 PM 9.0 °F -5.9 °F 3.0 °F 77% 29.93 in 1.8 mi North 11.5 mph - 0.00 in Snow Light Snow
10:18 PM 8.1 °F -7.7 °F 1.9 °F 76% 29.93 in 3.0 mi North 12.7 mph - 0.00 in Snow Light Snow
10:54 PM 6.1 °F -9.5 °F -0.0 °F 76% 30.00 in 3.0 mi North 11.5 mph - 0.00 in Snow Light Snow
11:15 PM 5.0 °F -10.0 °F -0.9 °F 76% 29.96 in 7.0 mi North 10.4 mph - 0.00 in   Overcast
11:54 PM 3.9 °F -12.2 °F -2.0 °F 76% 30.02 in 4.0 mi North 11.5 mph - 0.00 in   Overcast